TimeCDT,TemperatureF,Dew PointF,Humidity,Sea Level PressureIn,VisibilityMPH,Wind Direction,Wind SpeedMPH,Gust SpeedMPH,PrecipitationIn,Events,Conditions,WindDirDegrees,DateUTC
12:53 AM,57.9,55.0,90,29.94,10.0,Calm,Calm,-,N/A,,Overcast,0,2012-10-03 05:53:00
1:53 AM,57.0,54.0,89,29.95,10.0,Calm,Calm,-,N/A,,Mostly Cloudy,0,2012-10-03 06:53:00
2:53 AM,55.9,54.0,93,29.96,10.0,Calm,Calm,-,N/A,,Overcast,0,2012-10-03 07:53:00
3:53 AM,55.9,51.1,84,29.96,10.0,Calm,Calm,-,N/A,,Clear,0,2012-10-03 08:53:00
4:53 AM,55.0,50.0,83,29.97,10.0,Calm,Calm,-,N/A,,Clear,0,2012-10-03 09:53:00
5:53 AM,50.0,48.0,93,29.99,10.0,Calm,Calm,-,N/A,,Clear,0,2012-10-03 10:53:00
6:53 AM,50.0,48.0,93,30.01,10.0,Calm,Calm,-,N/A,,Clear,0,2012-10-03 11:53:00
7:53 AM,55.0,51.1,86,30.02,10.0,Calm,Calm,-,N/A,,Clear,0,2012-10-03 12:53:00
8:53 AM,60.1,52.0,75,30.03,10.0,SSW,3.5,-,N/A,,Clear,200,2012-10-03 13:53:00
9:53 AM,66.0,53.1,63,30.04,10.0,SSW,5.8,-,N/A,,Clear,200,2012-10-03 14:53:00
10:53 AM,69.1,54.0,58,30.04,10.0,SW,9.2,-,N/A,,Clear,220,2012-10-03 15:53:00
11:53 AM,72.0,55.0,55,30.03,10.0,SSW,8.1,-,N/A,,Clear,200,2012-10-03 16:53:00
12:53 PM,75.0,55.0,50,30.01,10.0,South,10.4,-,N/A,,Clear,170,2012-10-03 17:53:00
1:53 PM,75.9,55.0,48,30.00,10.0,SW,8.1,-,N/A,,Clear,230,2012-10-03 18:53:00
2:53 PM,75.9,55.0,48,29.99,10.0,South,11.5,-,N/A,,Clear,190,2012-10-03 19:53:00
3:53 PM,75.9,55.0,48,29.99,10.0,SSW,6.9,-,N/A,,Mostly Cloudy,210,2012-10-03 20:53:00
4:53 PM,72.0,55.9,57,30.00,10.0,SSW,4.6,-,N/A,,Scattered Clouds,210,2012-10-03 21:53:00
5:21 PM,71.6,55.4,57,30.00,10.0,South,6.9,-,N/A,Thunderstorm,Clear,190,2012-10-03 22:21:00
5:32 PM,71.6,55.4,57,30.00,10.0,SSW,5.8,-,N/A,,Partly Cloudy,200,2012-10-03 22:32:00
5:44 PM,69.8,57.2,64,30.01,10.0,WSW,15.0,19.6,N/A,Thunderstorm,Mostly Cloudy,250,2012-10-03 22:44:00
5:53 PM,68.0,53.1,59,30.01,10.0,WNW,13.8,-,N/A,,Mostly Cloudy,290,2012-10-03 22:53:00
6:53 PM,64.0,57.0,78,30.02,10.0,Calm,Calm,-,N/A,,Mostly Cloudy,0,2012-10-03 23:53:00
7:53 PM,61.0,57.0,87,30.04,10.0,SSE,3.5,-,N/A,,Partly Cloudy,150,2012-10-04 00:53:00
8:53 PM,63.0,55.9,78,30.06,10.0,Calm,Calm,-,N/A,,Mostly Cloudy,0,2012-10-04 01:53:00
9:53 PM,61.0,55.0,81,30.08,10.0,Calm,Calm,-,N/A,,Clear,0,2012-10-04 02:53:00
10:53 PM,63.0,55.9,78,30.09,10.0,SSW,4.6,-,N/A,,Partly Cloudy,210,2012-10-04 03:53:00
11:53 PM,64.9,55.9,73,30.10,10.0,South,5.8,-,N/A,,Clear,190,2012-10-04 04:53:00